Location: Aragnouet
(42.7874°N, 0.2165°E)
Time: 14:33:45
(UTC+00:00)

Cosmos 1697 Rocket - Pass Details

Date: 09 April 2020
Orbit: 831 x 845 km, 71.0° (Epoch: 04 June)

Event Time Altitude Azimuth Distance (km) Brightness Sun altitude
Rises 21:06:20 0° 340° (NNW) 3,411 6.8 -25.6°
Reaches altitude 10° 21:08:54 10° 346° (NNW) 2,473 5.8 -26.0°
Enters shadow 21:14:11 45° 54° (NE) 1,134 3.2 -26.7°
